TimeCDT,TemperatureF,Dew PointF,Humidity,Sea Level PressureIn,VisibilityMPH,Wind Direction,Wind SpeedMPH,Gust SpeedMPH,PrecipitationIn,Events,Conditions,WindDirDegrees,DateUTC
12:53 AM,57.0,55.9,96,30.06,4.0,South,3.5,-,N/A,,Overcast,180,2012-10-04 05:53:00
1:53 AM,57.0,55.0,93,30.07,4.0,SSW,5.8,-,N/A,,Overcast,200,2012-10-04 06:53:00
2:53 AM,57.0,55.0,93,30.07,5.0,SW,6.9,-,N/A,,Mostly Cloudy,230,2012-10-04 07:53:00
3:53 AM,57.9,54.0,87,30.07,10.0,SW,9.2,-,N/A,,Overcast,230,2012-10-04 08:53:00
4:53 AM,57.0,53.1,87,30.08,10.0,SW,6.9,-,N/A,,Overcast,230,2012-10-04 09:53:00
5:53 AM,57.0,53.1,87,30.08,10.0,SSW,4.6,-,N/A,,Overcast,200,2012-10-04 10:53:00
6:53 AM,55.9,52.0,87,30.08,10.0,SSW,4.6,-,N/A,,Scattered Clouds,200,2012-10-04 11:53:00
7:53 AM,55.9,52.0,87,30.09,9.0,SSW,4.6,-,N/A,,Clear,200,2012-10-04 12:53:00
8:53 AM,60.1,55.0,83,30.10,10.0,SSW,10.4,-,N/A,,Clear,210,2012-10-04 13:53:00
9:53 AM,64.9,55.9,73,30.10,10.0,SSW,9.2,-,N/A,,Clear,200,2012-10-04 14:53:00
10:53 AM,70.0,55.9,61,30.08,10.0,SSW,11.5,-,N/A,,Clear,200,2012-10-04 15:53:00
11:53 AM,75.0,54.0,48,30.06,10.0,SW,12.7,19.6,N/A,,Clear,220,2012-10-04 16:53:00
12:53 PM,78.1,53.1,42,30.04,10.0,SW,15.0,23.0,N/A,,Clear,220,2012-10-04 17:53:00
1:53 PM,80.1,53.1,39,30.02,10.0,SSW,17.3,26.5,N/A,,Partly Cloudy,210,2012-10-04 18:53:00
2:53 PM,81.0,52.0,36,30.01,10.0,SSW,15.0,28.8,N/A,,Scattered Clouds,210,2012-10-04 19:53:00
3:53 PM,79.0,52.0,39,30.00,10.0,SSW,20.7,27.6,N/A,,Scattered Clouds,210,2012-10-04 20:53:00
4:53 PM,79.0,53.1,40,30.00,10.0,SW,16.1,24.2,N/A,,Mostly Cloudy,230,2012-10-04 21:53:00
5:53 PM,72.0,55.9,57,30.03,10.0,West,13.8,21.9,N/A,,Overcast,270,2012-10-04 22:53:00
6:53 PM,64.0,52.0,65,30.06,10.0,West,10.4,26.5,N/A,,Overcast,280,2012-10-04 23:53:00
8:18 PM,59.0,55.4,88,30.08,10.0,West,18.4,24.2,0.01,,Overcast,270,2012-10-05 01:18:00
8:34 PM,57.2,55.4,94,30.09,10.0,West,15.0,21.9,0.01,,Overcast,270,2012-10-05 01:34:00
8:53 PM,57.0,54.0,89,30.09,10.0,West,12.7,-,0.01,,Overcast,270,2012-10-05 01:53:00
9:53 PM,54.0,50.0,86,30.09,10.0,West,10.4,-,0.00,,Overcast,270,2012-10-05 02:53:00
10:53 PM,54.0,48.9,83,30.12,10.0,WSW,9.2,-,N/A,,Overcast,240,2012-10-05 03:53:00
11:53 PM,53.1,48.9,86,30.13,10.0,West,9.2,-,N/A,,Overcast,260,2012-10-05 04:53:00